Overview Statistics Trail Chart Weather Telemetry Raw packets
 

This is the latest recevied weather packets stored in our database for station/object KA6AKH-WX. If no packets are shown the sender has not sent any weather packets the latest 10 day(s).

<< 6 7 8 9 10 11 12 >>
Time Temp. Humidity Pressure Rain* Wind** Luminosity Snow
1788290101 36.11° C 42% 1015.3 hPa 0 mm - - -
1788289506 36.67° C 41% 1015.3 hPa 0 mm - - -
1788288901 36.67° C 43% 1015.4 hPa 0 mm - - -
1788288271 36.11° C 44% 1015.4 hPa 0 mm - - -
1788287671 36.11° C 46% 1015.4 hPa 0 mm - - -
1788287071 35.56° C 46% 1015.3 hPa 0 mm - - -
1788286471 35° C 47% 1015.2 hPa 0 mm - - -
1788285841 35° C 48% 1015.2 hPa 0 mm - - -
1788284611 35° C 47% 1015.2 hPa 0 mm - - -
1788283412 35° C 47% 1015.4 hPa 0 mm - - -
1788282811 35° C 49% 1015.5 hPa 0 mm - - -
1788282211 35° C 51% 1015.7 hPa 0 mm - - -
1788281612 34.44° C 50% 1015.8 hPa 0 mm - - -
1788281010 33.89° C 53% 1015.9 hPa 0 mm - - -
1788279811 33.89° C 54% 1015.9 hPa 0 mm - - -
1788279210 33.89° C 54% 1016.1 hPa 0 mm - - -
1788278611 33.33° C 57% 1016.2 hPa 0 mm - - -
1788277981 32.22° C 57% 1016.3 hPa 0 mm - - -
1788277381 31.67° C 59% 1016.4 hPa 0 mm - - -
1788276780 31.67° C 60% 1016.6 hPa 0 mm - - -
1788276180 31.11° C 62% 1016.7 hPa 0 mm - - -
1788275580 30.56° C 62% 1016.8 hPa 0 mm - - -
1788274950 30.56° C 63% 1016.8 hPa 0 mm - - -
1788273720 30° C 66% 1016.9 hPa 0 mm - - -
1788273120 30° C 66% 1016.9 hPa 0 mm - - -

* Rain latest hour (hover to see other rain measurements)
** Current wind speed in m/s (hover to see current wind gust speed)